Theta_e
347 343 341 339 341 347 349 354 357 351 350 354 352 353 354 356 357 358 358 356 355 351 349 350 351 351 347 351 351 353 354 354
346 348 342 338 340 346 352 354 356 356 352 351 351 351 354 355 355 357 357 354 353 350 348 349 349 350 351 353 354 354 354 354
334 347 352 348 343 345 350 354 356 356 355 353 353 353 353 358 356 356 355 352 351 348 350 353 353 354 360 359 358 352 342 335
333 335 338 343 353 348 350 350 354 354 352 353 356 356 357 355 357 356 354 353 352 349 350 354 355 367 363 359 357 345 337 333
339 345 347 351 346 352 352 350 354 352 351 352 353 354 355 355 355 357 354 356 357 357 353 357 358 357 356 355 346 340 336 330
341 342 342 347 354 354 354 349 349 352 353 353 354 354 357 358 355 358 356 357 360 358 357 354 352 353 351 346 343 338 333 332
329 331 331 336 339 347 350 352 352 353 356 358 359 359 358 357 358 358 358 358 358 357 354 351 347 346 346 342 339 339 333 332
320 323 328 328 331 332 336 337 341 347 357 356 356 353 352 352 354 356 356 355 353 353 351 348 344 340 339 336 336 333 330 326
319 319 319 322 323 326 327 329 332 339 344 343 347 345 347 351 351 351 353 353 351 349 347 344 340 337 337 336 333 330 326 327
313 315 317 316 316 318 321 323 327 329 335 340 341 342 345 346 345 348 349 348 346 345 344 342 341 336 336 334 332 326 327 329
314 313 314 314 315 315 318 320 322 323 328 330 334 339 342 340 340 341 343 343 343 343 342 340 339 337 332 334 333 333 327 329
312 312 312 312 312 315 317 318 319 319 322 322 324 323 324 328 331 334 336 340 341 341 341 340 339 336 338 335 335 333 332 326
309 310 310 311 312 313 315 317 317 318 319 319 316 317 318 320 322 326 331 335 335 336 337 338 338 335 337 336 335 334 331 328
309 310 311 312 312 312 313 314 316 316 316 316 315 314 315 315 317 317 319 321 327 332 332 333 337 336 335 335 335 334 333 331
308 308 309 310 310 311 311 312 312 314 314 314 313 314 314 315 314 313 314 314 316 322 324 324 326 330 333 333 334 333 332 330
305 306 308 307 309 310 311 311 311 311 311 311 312 313 311 311 312 311 311 311 312 316 316 318 322 323 326 330 330 331 332 330
305 306 307 308 308 309 309 309 310 310 310 310 310 310 309 309 310 310 309 311 311 313 315 315 317 318 321 323 324 326 327 323
306 306 307 308 309 309 310 309 307 308 308 308 306 306 307 306 305 304 303 305 306 307 310 312 314 315 317 321 320 320 319 319
305 306 307 308 308 308 307 306 306 306 305 304 303 302 301 302 301 302 301 303 304 305 307 309 312 312 314 319 321 319 315 315
305 306 306 306 305 305 304 304 303 303 302 303 302 302 303 302 302 303 303 303 305 307 308 311 311 312 313 315 316 317 316 314
Wind_Speed
4 4 9 10 6 6 7 8 3 7 7 6 5 4 4 5 5 4 4 3 5 6 5 6 7 12 8 12 11 11 3 7
7 9 6 6 8 12 9 8 7 5 4 5 3 4 3 2 3 5 4 4 3 5 4 4 4 5 5 6 2 5 6 3
14 11 8 7 8 9 7 7 6 5 3 1 3 3 4 1 3 4 4 4 3 5 4 5 5 5 4 5 4 4 4 5
11 11 8 9 7 8 10 8 5 5 5 3 2 3 2 3 2 2 4 4 3 4 5 4 6 5 5 5 2 3 2 1
14 13 14 14 5 4 7 7 6 3 3 4 3 2 3 3 3 4 4 4 4 5 5 6 4 2 2 2 4 4 2 1
18 17 15 17 10 6 6 3 4 4 2 3 3 4 4 3 4 4 5 5 6 6 6 5 4 4 4 4 3 3 1 3
20 20 18 16 15 15 13 9 5 3 1 3 2 3 4 3 4 4 4 5 6 6 5 4 4 4 4 5 5 5 5 4
19 21 18 19 17 16 16 14 14 9 4 2 2 4 3 3 4 4 4 4 5 6 5 5 6 5 5 6 6 7 7 6
20 18 20 20 21 19 18 16 14 11 8 5 6 6 4 3 4 6 6 5 4 4 5 5 6 6 7 7 7 7 7 6
18 18 19 19 17 15 16 18 17 14 10 8 6 5 3 4 5 5 6 6 5 6 7 6 7 6 7 9 9 7 8 5
15 16 16 15 17 16 15 16 15 17 16 9 8 7 5 8 9 8 9 8 7 6 8 8 7 8 7 8 8 10 9 6
14 15 16 16 15 14 16 15 16 14 16 12 13 9 8 8 7 9 10 10 10 10 9 9 9 9 9 8 9 10 8 11
14 14 13 14 13 13 13 15 15 15 15 14 11 11 10 9 9 12 11 9 9 10 11 11 11 10 12 11 12 9 9 10
13 12 13 13 13 14 14 16 14 14 13 13 13 13 13 11 11 11 9 10 9 10 10 11 11 12 13 12 11 12 11 12
12 13 12 12 14 14 12 14 14 14 14 14 13 14 14 13 13 11 14 11 11 11 12 12 11 13 11 11 10 12 12 11
11 11 13 13 14 14 15 15 15 14 14 14 12 12 9 10 11 12 11 12 13 15 14 14 14 13 13 12 9 9 10 7
11 11 13 13 14 16 16 17 17 17 16 14 14 13 15 13 15 14 12 14 13 15 16 16 16 14 11 10 8 10 8 6
9 10 12 12 12 12 14 15 16 16 16 15 15 16 16 15 15 15 14 15 15 15 16 16 16 15 14 9 6 6 7 6
9 10 10 10 11 13 14 14 15 15 16 15 14 13 13 12 11 11 12 13 13 14 15 15 15 14 13 12 11 8 6 6
9 9 10 11 13 14 14 14 15 15 13 15 14 14 13 13 12 12 12 11 12 12 11 14 14 13 12 12 12 11 8 6
Wind_Direction
172 160 162 152 160 178 193 175 173 199 164 171 174 179 184 188 218 229 220 259 211 221 233 202 221 202 237 199 206 225 233 264
336 158 79 125 178 194 189 185 187 176 144 200 180 198 175 216 182 211 242 236 215 270 274 267 225 248 260 242 285 323 266 312
21 4 340 200 227 194 195 182 201 146 163 213 239 200 189 121 196 196 259 279 296 286 296 285 297 295 348 290 273 325 33 358
46 16 13 319 226 207 183 186 180 184 171 223 259 263 185 225 254 228 219 259 257 288 259 275 268 288 254 249 238 138 132 231
48 36 14 6 351 176 171 171 156 208 137 221 258 278 296 252 259 241 249 245 236 267 261 277 294 293 259 184 148 138 150 278
44 50 39 22 26 46 110 127 130 173 269 296 322 328 299 264 253 255 248 245 246 256 264 276 285 240 225 175 161 162 73 322
43 45 48 39 43 32 43 37 53 36 28 326 311 315 277 303 303 279 303 291 274 275 283 274 244 238 212 189 179 184 197 214
51 45 50 51 45 38 46 34 18 16 60 68 60 86 35 11 328 325 306 290 285 257 237 230 219 224 209 202 201 195 209 215
57 53 50 45 43 40 43 34 35 24 20 25 15 19 356 354 355 354 336 325 296 274 267 227 229 230 233 200 203 208 214 222
60 48 46 49 46 36 28 43 27 32 29 18 11 348 7 360 12 347 351 328 301 275 273 247 234 236 223 214 221 230 247 239
58 57 48 48 46 33 35 36 33 31 18 20 5 359 341 12 354 342 358 327 312 288 273 270 256 259 227 230 233 248 268 237
54 46 42 38 35 31 33 31 30 33 22 25 22 4 359 353 343 351 318 330 321 307 288 280 269 270 274 245 247 264 248 273
44 38 39 38 30 25 28 23 26 20 20 17 5 2 348 336 333 332 318 320 308 300 299 289 277 270 273 269 275 254 269 270
34 29 25 24 20 16 14 13 17 14 8 5 2 348 335 332 331 314 312 318 310 303 326 315 296 281 275 269 261 262 271 281
19 15 9 9 13 9 5 8 5 5 0 354 347 341 332 322 322 315 325 311 310 316 330 312 319 312 292 282 283 277 270 264
9 6 4 3 4 5 4 3 357 355 351 345 340 334 326 313 323 318 308 307 299 312 301 299 301 303 310 300 283 274 282 288
13 3 6 357 359 2 1 354 350 350 343 335 332 334 328 321 319 312 309 314 308 304 305 298 297 296 303 304 302 294 293 297
9 2 2 357 356 355 356 348 343 338 335 338 338 334 333 331 324 324 318 312 314 309 302 299 298 295 293 287 276 267 253 249
1 359 359 353 355 353 351 345 337 341 344 340 330 329 325 320 317 314 308 306 302 296 299 297 292 290 280 284 278 260 250 249
353 355 2 2 356 353 349 347 341 341 339 333 330 324 325 323 320 322 312 297 287 301 328 319 292 286 287 270 282 290 292 311